Regional Weather Roundup
Issued by NWS Midland/Odessa, TX

Skip options and go directly to product.
Home | Oldest Version | Next Version | Current Version | All | Text Only | Save Text | Print | Product List | Glossary On

Skip product version selection by date and time.   
984
ASUS44 KMAF 120810
RWRMAF
MIDLAND AREA WEATHER ROUNDUP
NATIONAL WEATHER SERVICE MIDLAND TX
200 AM CST FRI FEB 12 2016

...IN SOUTHWEST TEXAS AND SOUTHEAST NEW MEXICO...

CITY           SKY/WX    TMP DP  RH WIND       PRES   REMARKS
ALPINE         CLOUDY    40  20  45 SW10      30.32S WCI  33
ANDREWS        FAIR      39  27  61 CALM      30.21R
ARTESIA        CLOUDY    36  18  48 W5        30.23R WCI  32
BIG SPRING     CLOUDY    37  24  58 CALM      30.21S
CARLSBAD       CLOUDY    35  23  61 W6        30.20S WCI  30
DRYDEN           N/A     56  20  24 N7        30.15S
FORT STOCKTON  CLOUDY    49  24  37 SW13      30.20S
GUAD PASS      CLEAR     54  12  18 W13       30.30S
HOBBS          CLOUDY    36  23  60 SW7       30.22S WCI  30
MARFA          CLEAR     29  14  53 NW6       30.30R WCI  23
MIDLAND AIRPK  CLOUDY    43  29  57 CALM      30.20S
MIDLAND INTL   CLOUDY    40  27  59 W3        30.19S
ODESSA         CLOUDY    43  26  51 NW3       30.20S
PECOS          CLOUDY    36  22  58 SW5       30.20S WCI  32
PRESIDIO       FAIR      49  16  26 N7        30.20S
SEMINOLE       CLOUDY    36  26  65 NW6       30.21S WCI  31
SNYDER           N/A     46  30  52 NE6       30.19S
WINK           CLOUDY    35  23  61 N8        30.19S WCI  29
$$
...OTHER STATIONS IN TEXAS...

CITY           SKY/WX    TMP DP  RH WIND       PRES   REMARKS
ABILENE        PTCLDY    41  32  70 CALM      30.17F
AMARILLO       CLOUDY    45  25  45 NW8       30.23R
AUSTIN         CLEAR     44  43  96 CALM      30.15R
BROWNSVILLE    CLEAR     59  58  96 S9        30.17F
CORPUS CHRISTI FOG       55  54  96 SE8       30.16S VSB 1/2
DALLAS FTW     CLEAR     49  34  56 N8        30.13R
DEL RIO        CLEAR     57  29  34 NE10      30.12F
EL PASO        PTCLDY    44  18  35 N3        30.24R
HOUSTON INT    CLEAR     61  56  83 SW6       30.16F
LUBBOCK        CLOUDY    37  23  56 W6        30.20S WCI  32
SAN ANGELO     CLOUDY    40  25  55 W5        30.18R WCI  37
SAN ANTONIO    CLEAR     50  44  80 NW3       30.16S
WACO           CLEAR     44  36  73 W5        30.11S
WICHITA FALLS  NOT AVBL
$$
...OTHER LOCATIONS IN NEW MEXICO...

CITY           SKY/WX    TMP DP  RH WIND       PRES   REMARKS
ALAMAGORDO     CLOUDY    46   7  19 CALM      30.26S
ALBUQUERQUE    CLOUDY    46  18  32 N5        30.34S
CANNON AFB     CLOUDY    38  18  43 CALM      30.20S
CLOVIS         CLOUDY    43  19  39 SW6       30.22S WCI  39
HOLLOMAN AFB   CLOUDY    34   6  31 N6        30.25S WCI  29
ROSWELL        CLOUDY    38  16  40 NW3       30.21S
RUIDOSO          N/A     46   9  21 NW7       30.36R
SANTA FE       CLOUDY    39  19  44 N12       30.33S WCI  32
TRUTH OR CONSE CLEAR     50  13  22 NW12      30.29R
TUCUMCARI      CLOUDY    41  16  36 N14       30.21R WCI  33
$$

USA.gov is the U.S. government's official web portal to all federal, state and local government web resources and services.